| time (UTC) | temp F | wind direction | speed knots | gust knots | rain 1hr in | rain 24hr in | rain mn in | humidity % | barometer mb |
| 20260503020404 | 66 | 1.7 | 4.3 | 0.00 | 0.00 | 0.00 | 68 | 1011.9 | |
| 20260503015434 | 66 | 1.7 | 5.2 | 0.00 | 0.00 | 0.00 | 67 | 1011.7 | |
| 20260503014903 | 67 | 4.3 | 5.2 | 0.00 | 0.00 | 0.00 | 68 | 1011.7 | |
| 20260503014403 | 67 | 2.6 | 6.1 | 0.00 | 0.00 | 0.00 | 67 | 1011.7 | |
| 20260503013404 | 67 | 3.5 | 4.3 | 0.00 | 0.00 | 0.00 | 66 | 1011.3 | |
| 20260503012904 | 68 | 1.7 | 4.3 | 0.00 | 0.00 | 0.00 | 65 | 1011.4 | |
| 20260503012403 | 68 | 3.5 | 6.1 | 0.00 | 0.00 | 0.00 | 65 | 1011.2 | |
| 20260503010904 | 68 | 3.5 | 4.3 | 0.00 | 0.00 | 0.00 | 64 | 1011.1 | |
| 20260503010433 | 68 | 2.6 | 4.3 | 0.00 | 0.00 | 0.00 | 64 | 1011.1 | |
| 20260503005933 | 68 | 1.7 | 2.6 | 0.00 | 0.00 | 0.00 | 65 | 1011.1 | |
| 20260503005403 | 68 | 0.0 | 2.6 | 0.00 | 0.00 | 0.00 | 63 | 1011.1 | |
| 20260503004903 | 68 | 1.7 | 3.5 | 0.00 | 0.00 | 0.00 | 62 | 1011.1 | |
| 20260503004403 | 68 | 2.6 | 6.1 | 0.00 | 0.00 | 0.00 | 61 | 1011.1 | |
| 20260503003903 | 68 | 0.9 | 6.1 | 0.00 | 0.00 | 0.00 | 60 | 1011.0 | |
| 20260503003403 | 69 | 1.7 | 4.3 | 0.00 | 0.00 | 0.00 | 61 | 1011.0 | |
| 20260503002903 | 69 | 1.7 | 4.3 | 0.00 | 0.00 | 0.00 | 59 | 1011.0 | |
| 20260503002403 | 69 | 0.0 | 4.3 | 0.00 | 0.00 | 0.00 | 60 | 1010.9 | |
| 20260503001933 | 69 | 0.9 | 4.3 | 0.00 | 0.00 | 0.00 | 59 | 1010.9 | |
| 20260503001433 | 69 | 4.3 | 4.3 | 0.00 | 0.00 | 0.00 | 61 | 1010.9 | |
| 20260503000402 | 69 | 0.0 | 5.2 | 0.00 | 0.00 | 0.00 | 63 | 1010.9 | |
| 20260502235432 | 68 | 0.9 | 6.1 | 0.00 | 0.00 | 0.00 | 62 | 1011.0 | |
| 20260502234902 | 68 | 0.9 | 6.1 | 0.00 | 0.00 | 0.00 | 62 | 1011.0 | |
| 20260502234432 | 68 | 3.5 | 5.2 | 0.00 | 0.00 | 0.00 | 65 | 1011.0 | |
| 20260502233902 | 68 | 2.6 | 5.2 | 0.00 | 0.00 | 0.00 | 63 | 1011.3 | |
| 20260502233402 | 68 | 2.6 | 4.3 | 0.00 | 0.00 | 0.00 | 63 | 1011.3 | |
| 20260502232902 | 68 | 1.7 | 4.3 | 0.00 | 0.00 | 0.00 | 64 | 1011.3 | |
| 20260502232432 | 68 | 1.7 | 3.5 | 0.00 | 0.00 | 0.00 | 64 | 1011.5 | |
| 20260502231402 | 67 | 3.5 | 4.3 | 0.00 | 0.00 | 0.00 | 63 | 1011.5 | |
| 20260502230902 | 67 | 2.6 | 5.2 | 0.00 | 0.00 | 0.00 | 64 | 1011.9 | |
| 20260502230432 | 67 | 1.7 | 6.1 | 0.00 | 0.00 | 0.00 | 63 | 1011.9 | |
| 20260502225932 | 68 | 2.6 | 6.1 | 0.00 | 0.00 | 0.00 | 63 | 1011.9 | |
| 20260502224931 | 68 | 0.9 | 3.5 | 0.00 | 0.00 | 0.00 | 65 | 1012.0 | |
| 20260502224430 | 68 | 0.9 | 3.5 | 0.00 | 0.00 | 0.00 | 63 | 1012.0 | |
| 20260502223901 | 68 | 1.7 | 7.0 | 0.00 | 0.00 | 0.00 | 63 | 1012.4 | |
| 20260502223430 | 68 | 0.0 | 7.0 | 0.00 | 0.00 | 0.00 | 66 | 1012.4 | |
| 20260502222930 | 68 | 2.6 | 5.2 | 0.00 | 0.00 | 0.00 | 63 | 1012.4 | |
| 20260502222431 | 68 | 0.9 | 3.5 | 0.00 | 0.00 | 0.00 | 60 | 1012.6 | |
| 20260502221930 | 68 | 3.5 | 3.5 | 0.00 | 0.00 | 0.00 | 66 | 1012.6 | |
| 20260502221430 | 67 | 1.7 | 4.3 | 0.00 | 0.00 | 0.00 | 65 | 1012.6 | |
| 20260502220930 | 67 | 0.9 | 4.3 | 0.00 | 0.00 | 0.00 | 62 | 1012.6 | |
| 20260502215930 | 66 | 0.0 | 3.5 | 0.00 | 0.00 | 0.00 | 65 | 1012.6 | |
| 20260502215430 | 65 | 0.0 | 4.3 | 0.00 | 0.00 | 0.00 | 66 | 1012.9 | |
| 20260502214929 | 65 | 1.7 | 4.3 | 0.00 | 0.00 | 0.00 | 65 | 1012.9 | |
| 20260502214430 | 65 | 1.7 | 4.3 | 0.00 | 0.00 | 0.00 | 67 | 1012.9 | |
| 20260502212930 | 64 | 0.0 | 6.1 | 0.00 | 0.00 | 0.00 | 66 | 1012.9 | |
| 20260502212429 | 64 | 1.7 | 5.2 | 0.00 | 0.00 | 0.00 | 67 | 1013.0 | |
| 20260502211930 | 64 | 5.2 | 5.2 | 0.00 | 0.00 | 0.00 | 66 | 1013.0 | |
| 20260502211429 | 63 | 1.7 | 6.1 | 0.00 | 0.00 | 0.00 | 66 | 1013.0 | |
| 20260502210929 | 63 | 3.5 | 6.1 | 0.00 | 0.00 | 0.00 | 67 | 1013.3 | |
| 20260502210429 | 63 | 0.9 | 6.1 | 0.00 | 0.00 | 0.00 | 68 | 1013.3 | |
| 20260502205929 | 63 | 1.7 | 6.1 | 0.00 | 0.00 | 0.00 | 66 | 1013.3 | |
| 20260502204929 | 64 | 2.6 | 4.3 | 0.00 | 0.00 | 0.00 | 68 | 1013.5 | |
| 20260502204429 | 63 | 0.0 | 4.3 | 0.00 | 0.00 | 0.00 | 66 | 1013.4 | |
| 20260502203929 | 62 | 2.6 | 5.2 | 0.00 | 0.00 | 0.00 | 68 | 1013.7 | |
| 20260502203430 | 62 | 2.6 | 5.2 | 0.00 | 0.00 | 0.00 | 67 | 1013.7 | |
| 20260502202929 | 62 | 1.7 | 6.1 | 0.00 | 0.00 | 0.00 | 68 | 1013.7 | |
| 20260502202429 | 62 | 3.5 | 6.1 | 0.00 | 0.00 | 0.00 | 70 | 1013.9 | |
| 20260502201358 | 61 | 3.5 | 5.2 | 0.00 | 0.00 | 0.00 | 68 | 1013.9 | |
| 20260502200929 | 62 | 0.0 | 5.2 | 0.00 | 0.00 | 0.00 | 67 | 1014.1 | |
| 20260502200429 | 62 | 0.0 | 5.2 | 0.00 | 0.00 | 0.00 | 66 | 1014.1 | |
| 20260502195928 | 61 | 0.0 | 4.3 | 0.00 | 0.00 | 0.00 | 65 | 1014.1 | |
| 20260502195428 | 62 | 0.9 | 4.3 | 0.00 | 0.00 | 0.00 | 65 | 1014.3 | |
| 20260502194928 | 62 | 2.6 | 5.2 | 0.00 | 0.00 | 0.00 | 69 | 1014.3 | |
| 20260502193428 | 59 | 1.7 | 5.2 | 0.00 | 0.00 | 0.00 | 70 | 1014.6 | |
| 20260502192928 | 59 | 4.3 | 5.2 | 0.00 | 0.00 | 0.00 | 71 | 1014.6 | |
| 20260502192427 | 59 | 1.7 | 6.1 | 0.00 | 0.00 | 0.00 | 71 | 1015.0 | |
| 20260502191428 | 59 | 0.9 | 5.2 | 0.00 | 0.00 | 0.00 | 69 | 1015.0 | |
| 20260502190927 | 59 | 2.6 | 5.2 | 0.00 | 0.00 | 0.00 | 68 | 1015.0 | |
| 20260502190428 | 59 | 2.6 | 5.2 | 0.00 | 0.00 | 0.00 | 71 | 1015.0 | |
| 20260502185927 | 59 | 2.6 | 5.2 | 0.00 | 0.00 | 0.00 | 71 | 1015.0 | |
| 20260502185428 | 58 | 0.0 | 3.5 | 0.00 | 0.00 | 0.00 | 70 | 1015.0 | |
| 20260502184927 | 58 | 0.0 | 3.5 | 0.00 | 0.00 | 0.00 | 69 | 1015.0 | |
| 20260502184427 | 58 | 0.9 | 2.6 | 0.00 | 0.00 | 0.00 | 73 | 1015.0 | |
| 20260502183927 | 58 | 0.0 | 2.6 | 0.00 | 0.00 | 0.00 | 71 | 1015.1 | |
| 20260502183357 | 58 | 0.0 | 2.6 | 0.00 | 0.00 | 0.00 | 70 | 1015.1 | |
| 20260502182927 | 57 | 0.0 | 0.0 | 0.00 | 0.00 | 0.00 | 73 | 1015.1 | |
| 20260502182427 | 57 | 0.0 | 2.6 | 0.00 | 0.00 | 0.00 | 74 | 1015.2 | |
| 20260502181427 | 56 | 1.7 | 3.5 | 0.00 | 0.00 | 0.00 | 75 | 1015.2 | |
| 20260502180927 | 56 | 0.0 | 4.3 | 0.00 | 0.00 | 0.00 | 76 | 1015.3 | |
| 20260502180357 | 56 | 3.5 | 4.3 | 0.00 | 0.00 | 0.00 | 77 | 1015.3 | |
| 20260502170427 | 54 | 0.0 | 5.2 | 0.00 | 0.00 | 0.00 | 79 | 1015.0 | |
| 20260502163926 | 54 | 0.9 | 3.5 | 0.00 | 0.00 | 0.00 | 77 | 1015.5 | |
| 20260502163425 | 54 | 0.0 | 3.5 | 0.00 | 0.00 | 0.00 | 77 | 1015.5 | |
| 20260502162926 | 54 | 0.0 | 0.0 | 0.00 | 0.00 | 0.00 | 77 | 1015.5 | |
| 20260502162426 | 54 | 0.0 | 0.0 | 0.00 | 0.00 | 0.00 | 79 | 1015.6 | |
| 20260502161926 | 53 | 0.0 | 0.0 | 0.00 | 0.00 | 0.00 | 79 | 1015.6 | |
| 20260502161425 | 53 | 0.0 | 0.0 | 0.00 | 0.00 | 0.00 | 80 | 1015.6 | |
| 20260502160926 | 53 | 0.0 | 0.0 | 0.00 | 0.00 | 0.00 | 80 | 1015.6 | |
| 20260502160425 | 52 | 0.0 | 0.0 | 0.00 | 0.00 | 0.00 | 81 | 1015.5 | |
| 20260502151925 | 50 | 0.0 | 1.7 | 0.00 | 0.00 | 0.00 | 86 | 1015.6 | |
| 20260502151425 | 50 | 0.0 | 1.7 | 0.00 | 0.00 | 0.00 | 86 | 1015.6 | |
| 20260502150925 | 50 | 0.0 | 0.0 | 0.00 | 0.00 | 0.00 | 87 | 1015.6 | |
| 20260502130424 | 48 | 0.0 | 0.0 | 0.00 | 0.00 | 0.00 | 89 | 1015.6 | |
| 20260502123424 | 49 | 0.0 | 0.0 | 0.00 | 0.00 | 0.00 | 87 | 1015.5 | |
| 20260502122924 | 49 | 0.0 | 0.0 | 0.00 | 0.00 | 0.00 | 87 | 1015.5 | |
| 20260502122424 | 49 | 0.0 | 0.0 | 0.00 | 0.00 | 0.00 | 87 | 1015.4 | |
| 20260502121924 | 49 | 0.0 | 0.0 | 0.00 | 0.00 | 0.00 | 86 | 1015.4 | |
| 20260502120924 | 50 | 0.0 | 0.0 | 0.00 | 0.00 | 0.00 | 86 | 1015.5 | |
| 20260502120424 | 50 | 0.0 | 0.0 | 0.00 | 0.00 | 0.00 | 86 | 1015.5 | |
| 20260502115924 | 50 | 0.0 | 0.0 | 0.00 | 0.00 | 0.00 | 85 | 1015.5 | |
| 20260502115424 | 50 | 0.0 | 0.0 | 0.00 | 0.00 | 0.00 | 85 | 1015.6 | |
| 20260502114924 | 50 | 0.0 | 0.0 | 0.00 | 0.00 | 0.00 | 85 | 1015.6 | |
| 20260502114424 | 50 | 0.0 | 1.7 | 0.00 | 0.00 | 0.00 | 85 | 1015.6 | |
| 20260502113924 | 50 | 0.0 | 1.7 | 0.00 | 0.00 | 0.00 | 84 | 1015.4 | |
| 20260502113424 | 50 | 0.9 | 1.7 | 0.00 | 0.00 | 0.00 | 84 | 1015.4 | |
| 20260502112924 | 51 | 0.0 | 1.7 | 0.00 | 0.00 | 0.00 | 84 | 1015.4 | |
| 20260502112424 | 51 | 0.9 | 3.5 | 0.00 | 0.00 | 0.00 | 84 | 1015.4 | |
| 20260502111924 | 51 | 0.9 | 3.5 | 0.00 | 0.00 | 0.00 | 84 | 1015.4 | |
| 20260502111424 | 51 | 0.9 | 3.5 | 0.00 | 0.00 | 0.00 | 84 | 1015.4 | |
| 20260502110924 | 51 | 1.7 | 2.6 | 0.00 | 0.00 | 0.00 | 84 | 1015.4 | |
| 20260502110424 | 51 | 0.0 | 4.3 | 0.00 | 0.00 | 0.00 | 85 | 1015.4 | |
| 20260502105924 | 51 | 0.9 | 4.3 | 0.00 | 0.00 | 0.00 | 84 | 1015.4 | |
| 20260502105423 | 51 | 4.3 | 4.3 | 0.00 | 0.00 | 0.00 | 84 | 1015.1 | |
| 20260502104924 | 51 | 0.0 | 3.5 | 0.00 | 0.00 | 0.00 | 83 | 1015.1 | |
| 20260502104424 | 51 | 1.7 | 2.6 | 0.00 | 0.00 | 0.00 | 83 | 1015.1 | |
| 20260502103423 | 51 | 0.0 | 0.0 | 0.00 | 0.00 | 0.00 | 83 | 1015.0 | |
| 20260502102924 | 52 | 0.0 | 0.0 | 0.00 | 0.00 | 0.00 | 83 | 1015.0 | |
| 20260502102424 | 52 | 0.0 | 0.0 | 0.00 | 0.00 | 0.00 | 83 | 1015.2 | |
| 20260502101924 | 51 | 0.0 | 0.0 | 0.00 | 0.00 | 0.00 | 82 | 1015.2 | |
| 20260502101424 | 51 | 0.0 | 0.0 | 0.00 | 0.00 | 0.00 | 81 | 1015.2 | |
| 20260502100924 | 51 | 0.0 | 0.0 | 0.00 | 0.00 | 0.00 | 82 | 1015.1 | |
| 20260502091423 | 52 | 0.0 | 0.0 | 0.00 | 0.00 | 0.00 | 83 | 1015.6 | |
| 20260502090423 | 52 | 0.0 | 0.0 | 0.00 | 0.00 | 0.00 | 83 | 1016.0 | |
| 20260502071422 | 53 | 0.0 | 0.0 | 0.00 | 0.00 | 0.00 | 81 | 1016.4 | |
| 20260502070922 | 53 | 0.0 | 0.0 | 0.00 | 0.00 | 0.00 | 81 | 1016.2 | |
| 20260502070422 | 53 | 0.0 | 0.0 | 0.00 | 0.00 | 0.00 | 81 | 1016.2 | |
| 20260502065922 | 53 | 0.0 | 0.0 | 0.00 | 0.00 | 0.00 | 81 | 1016.2 | |
| 20260502065421 | 53 | 0.0 | 0.0 | 0.00 | 0.00 | 0.00 | 81 | 1016.3 | |
| 20260502064921 | 54 | 0.0 | 0.0 | 0.00 | 0.00 | 0.00 | 81 | 1016.3 | |
| 20260502064421 | 54 | 0.0 | 0.0 | 0.00 | 0.00 | 0.00 | 81 | 1016.3 | |
| 20260502063921 | 54 | 0.0 | 0.0 | 0.00 | 0.00 | 0.00 | 81 | 1016.2 | |
| 20260502063421 | 54 | 0.0 | 0.0 | 0.00 | 0.00 | 0.00 | 81 | 1016.2 | |
| 20260502062421 | 54 | 0.0 | 0.0 | 0.00 | 0.00 | 0.00 | 80 | 1016.2 | |
| 20260502060921 | 54 | 0.0 | 1.7 | 0.00 | 0.00 | 0.00 | 81 | 1016.2 | |
| 20260502060421 | 54 | 0.0 | 1.7 | 0.00 | 0.00 | 0.00 | 81 | 1016.2 | |
| 20260502055421 | 54 | 0.9 | 3.5 | 0.00 | 0.00 | 0.00 | 80 | 1015.9 | |
| 20260502054921 | 54 | 0.0 | 0.9 | 0.00 | 0.00 | 0.00 | 80 | 1015.9 | |
| 20260502054421 | 54 | 0.0 | 0.9 | 0.00 | 0.00 | 0.00 | 80 | 1015.9 | |
| 20260502053921 | 54 | 0.9 | 0.9 | 0.00 | 0.00 | 0.00 | 79 | 1015.8 | |
| 20260502053421 | 55 | 0.0 | 0.9 | 0.00 | 0.00 | 0.00 | 79 | 1015.8 | |
| 20260502052921 | 55 | 0.0 | 1.7 | 0.00 | 0.00 | 0.00 | 79 | 1015.8 | |
| 20260502051920 | 55 | 0.0 | 1.7 | 0.00 | 0.00 | 0.00 | 78 | 1015.7 | |
| 20260502051420 | 55 | 0.0 | 0.0 | 0.00 | 0.00 | 0.00 | 77 | 1015.7 | |
| 20260502050921 | 55 | 0.0 | 0.0 | 0.00 | 0.00 | 0.00 | 76 | 1015.6 | |
| 20260502050420 | 55 | 0.0 | 0.0 | 0.00 | 0.00 | 0.00 | 75 | 1015.6 | |
| 20260502045921 | 55 | 0.0 | 2.6 | 0.00 | 0.00 | 0.00 | 74 | 1015.6 | |
| 20260502045420 | 56 | 0.0 | 2.6 | 0.00 | 0.00 | 0.00 | 73 | 1015.5 | |
| 20260502044920 | 56 | 0.9 | 2.6 | 0.00 | 0.00 | 0.00 | 72 | 1015.5 | |
| 20260502044421 | 57 | 0.9 | 2.6 | 0.00 | 0.00 | 0.00 | 69 | 1015.5 | |
| 20260502043920 | 57 | 0.0 | 0.0 | 0.00 | 0.00 | 0.00 | 65 | 1015.2 | |
| 20260502043420 | 57 | 0.0 | 0.0 | 0.00 | 0.00 | 0.00 | 66 | 1015.2 | |
| 20260502042920 | 57 | 0.0 | 0.0 | 0.00 | 0.00 | 0.00 | 65 | 1015.2 | |
| 20260502041920 | 58 | 0.0 | 0.0 | 0.00 | 0.00 | 0.00 | 65 | 1015.2 | |
| 20260502040920 | 58 | 0.0 | 0.0 | 0.00 | 0.00 | 0.00 | 64 | 1015.1 | |
| 20260502040420 | 59 | 0.0 | 0.0 | 0.00 | 0.00 | 0.00 | 62 | 1015.1 | |
| 20260502035920 | 59 | 0.0 | 0.0 | 0.00 | 0.00 | 0.00 | 61 | 1015.1 | |
| 20260502035420 | 59 | 0.0 | 0.0 | 0.00 | 0.00 | 0.00 | 61 | 1014.9 | |
| 20260502034920 | 60 | 0.0 | 0.0 | 0.00 | 0.00 | 0.00 | 61 | 1014.9 | |
| 20260502034420 | 60 | 0.0 | 0.0 | 0.00 | 0.00 | 0.00 | 61 | 1014.9 | |
| 20260502033920 | 60 | 0.0 | 0.0 | 0.00 | 0.00 | 0.00 | 60 | 1014.6 | |
| 20260502033420 | 60 | 0.0 | 4.3 | 0.00 | 0.00 | 0.00 | 59 | 1014.6 | |
| 20260502032419 | 60 | 0.0 | 2.6 | 0.00 | 0.00 | 0.00 | 57 | 1014.5 | |
| 20260502031419 | 60 | 0.0 | 2.6 | 0.00 | 0.00 | 0.00 | 57 | 1014.5 | |
| 20260502030919 | 61 | 0.0 | 2.6 | 0.00 | 0.00 | 0.00 | 59 | 1014.3 | |
| 20260502024919 | 62 | 0.0 | 0.9 | 0.00 | 0.00 | 0.00 | 56 | 1014.1 | |
| 20260502024419 | 62 | 0.9 | 1.7 | 0.00 | 0.00 | 0.00 | 57 | 1014.1 | |
| 20260502023919 | 62 | 0.0 | 1.7 | 0.00 | 0.00 | 0.00 | 56 | 1014.0 | |
| 20260502023419 | 63 | 0.0 | 0.0 | 0.00 | 0.00 | 0.00 | 56 | 1014.0 | |
| 20260502022919 | 63 | 0.0 | 1.7 | 0.00 | 0.00 | 0.00 | 57 | 1014.0 | |
| 20260502021919 | 63 | 0.0 | 1.7 | 0.00 | 0.00 | 0.00 | 55 | 1013.9 | |
| 20260502021419 | 64 | 0.0 | 1.7 | 0.00 | 0.00 | 0.00 | 55 | 1013.9 | |
| 20260502020919 | 64 | 0.9 | 1.7 | 0.00 | 0.00 | 0.00 | 55 | 1014.0 | |
| 20260502020419 | 64 | 0.9 | 3.5 | 0.00 | 0.00 | 0.00 | 56 | 1014.0 |